JAS-2 (FO-29)

Last updated on Wed Oct 22 2025 00:03:08 GMT+0000 (Coordinated Universal Time)

1 24278U 96046B 25294.64931512 .00000050 00000+0 87991-4 0 9993 2 24278 98.5517 170.7630 0349929 355.3360 4.4549 13.53257516440906
UTC large
Height (km)
Speed (km/s)
/
Latitude / Longitude
Inclination (degrees)
Orbital Period (minutes)
Azimuth
Elevation
Range (km)
Doppler Factor

Next 0 passes for location: London (51.5072 / 0.1276)

Sorry there are no passes over London.